GW3421 Weather Reports


Display with metric or nautical units.
time (UTC)temp
F
wind
direction
speed
MPH
gust
MPH
rain 1hr
in
rain 24hr
in
rain mn
in
humidity
%
barometer
mb
20260906101155 66 145 0.0 0.0 0.00 0.00 0.00 99 1015.6
20260906100650 66 142 0.0 0.0 0.00 0.00 0.00 99 1015.6
20260906100145 67 149 0.0 0.0 0.00 0.00 0.00 99 1015.5
20260906095640 67 136 0.0 0.0 0.00 0.00 0.00 99 1015.6
20260906095135 67 135 0.0 0.0 0.00 0.00 0.00 99 1015.6
20260906094634 66 135 0.0 0.0 0.00 0.00 0.00 99 1015.9
20260906094130 67 136 0.0 0.0 0.00 0.00 0.00 99 1015.8
20260906093626 67 134 0.0 0.0 0.00 0.00 0.00 99 1015.5
20260906093120 66 142 0.0 0.0 0.00 0.00 0.00 99 1015.6
20260906092615 66 147 0.0 0.0 0.00 0.00 0.00 99 1015.6
20260906092110 66 142 0.0 0.0 0.00 0.00 0.00 99 1015.5
20260906091606 66 137 0.0 0.0 0.00 0.00 0.00 99 1015.4
20260906091103 66 141 0.0 0.0 0.00 0.00 0.00 99 1015.4
20260906090603 66 118 0.0 0.0 0.00 0.00 0.00 99 1015.6
20260906085602 66 132 0.0 0.0 0.00 0.00 0.00 99 1015.3
20260906085056 66 132 0.0 0.0 0.00 0.00 0.00 99 1015.4
20260906084551 66 132 0.0 0.0 0.00 0.00 0.00 99 1015.4
20260906084050 67 141 0.0 0.0 0.00 0.00 0.00 99 1015.6
20260906083546 66 151 0.0 0.0 0.00 0.00 0.00 99 1015.7
20260906083045 66 145 0.0 0.0 0.00 0.00 0.00 99 1015.6
20260906082540 66 145 0.0 0.0 0.00 0.00 0.00 99 1015.8
20260906082037 66 145 0.0 0.0 0.00 0.00 0.00 99 1015.6
20260906081532 66 146 0.0 0.0 0.00 0.00 0.00 99 1015.6
20260906081027 66 146 0.0 0.0 0.00 0.00 0.00 99 1015.5
20260906080524 66 145 0.0 0.0 0.00 0.00 0.00 99 1015.6
20260906080019 66 166 0.0 0.0 0.00 0.00 0.00 99 1015.7
20260906075513 66 135 0.0 0.0 0.00 0.00 0.00 99 1015.4
20260906075009 66 149 0.0 1.0 0.00 0.00 0.00 99 1015.3
20260906074503 66 132 0.0 0.0 0.00 0.00 0.00 99 1015.5
20260906074002 66 114 0.0 0.0 0.00 0.00 0.00 99 1015.3
20260906073456 66 138 0.0 0.0 0.00 0.00 0.00 99 1015.2
20260906072953 66 138 0.0 0.0 0.00 0.00 0.00 99 1015.2
20260906072448 66 138 0.0 0.0 0.00 0.00 0.00 99 1015.4
20260906071944 66 138 0.0 0.0 0.00 0.00 0.00 99 1015.4
20260906071439 66 138 0.0 0.0 0.00 0.00 0.00 99 1015.3
20260906070935 66 138 0.0 0.0 0.00 0.00 0.00 99 1015.6
20260906070431 66 138 0.0 0.0 0.00 0.00 0.00 99 1015.6
20260906065926 66 138 0.0 0.0 0.00 0.00 0.00 99 1015.5
20260906065421 66 137 0.0 0.0 0.00 0.00 0.00 99 1015.4
20260906064916 66 138 0.0 0.0 0.00 0.00 0.00 99 1015.2
20260906064412 66 138 0.0 0.0 0.00 0.00 0.00 99 1015.4
20260906063907 67 140 0.0 0.0 0.00 0.00 0.00 99 1015.3
20260906063402 67 141 0.0 0.0 0.00 0.00 0.00 99 1015.5
20260906062857 66 129 0.0 0.0 0.00 0.00 0.00 99 1015.5
20260906062356 66 128 0.0 0.0 0.00 0.00 0.00 99 1015.5
20260906061852 67 136 0.0 0.0 0.00 0.00 0.00 99 1015.4
20260906061348 67 87 0.0 0.0 0.00 0.00 0.00 99 1015.5
20260906060843 67 134 0.0 0.0 0.00 0.00 0.00 99 1015.5
20260906060340 67 147 0.0 0.0 0.00 0.00 0.00 99 1015.7
20260906055836 67 140 0.0 0.0 0.00 0.00 0.00 99 1015.7
20260906055332 66 100 0.0 0.0 0.00 0.00 0.00 99 1015.7
20260906054827 67 81 0.0 0.0 0.00 0.00 0.00 99 1015.8
20260906054321 67 114 0.0 0.0 0.00 0.00 0.00 99 1016.2
20260906053818 67 136 1.0 1.0 0.00 0.00 0.00 99 1016.3
20260906053314 67 139 1.0 1.0 0.00 0.00 0.00 99 1016.4
20260906052809 67 141 0.0 1.0 0.00 0.00 0.00 99 1016.4
20260906052306 67 141 0.0 0.0 0.00 0.00 0.00 99 1016.2
20260906051802 67 141 0.0 0.0 0.00 0.00 0.00 99 1016.3
20260906051301 67 135 0.0 0.0 0.00 0.00 0.00 99 1016.4
20260906050756 67 124 0.0 0.0 0.00 0.00 0.00 99 1016.5
20260906050252 67 151 0.0 0.0 0.00 0.00 0.00 99 1016.4
20260906045750 67 107 0.0 0.0 0.00 0.00 0.00 99 1016.5
20260906045245 67 114 0.0 0.0 0.00 0.00 0.00 99 1016.5
20260906044741 67 128 0.0 0.0 0.00 0.00 0.00 99 1016.5
20260906044236 68 125 0.0 0.0 0.00 0.00 0.00 99 1016.3
20260906043732 68 121 0.0 0.0 0.00 0.00 0.00 99 1016.6
20260906043228 68 126 0.0 0.0 0.00 0.00 0.00 99 1016.6
20260906042727 68 131 0.0 0.0 0.00 0.00 0.00 99 1016.5
20260906042226 67 130 0.0 0.0 0.00 0.00 0.00 99 1016.5
20260906041722 67 90 0.0 0.0 0.00 0.00 0.00 99 1016.5
20260906041217 67 96 0.0 0.0 0.00 0.00 0.00 99 1016.3
20260906040713 68 106 0.0 0.0 0.00 0.00 0.00 99 1016.3
20260906040208 68 119 0.0 0.0 0.00 0.00 0.00 99 1016.5
20260906035703 68 107 0.0 0.0 0.00 0.61 0.61 99 1016.4
20260906035158 68 92 0.0 0.0 0.00 0.61 0.61 99 1016.6
20260906034653 68 118 0.0 0.0 0.00 0.61 0.61 99 1016.6
20260906034148 68 168 1.0 1.0 0.00 0.61 0.61 99 1016.7
20260906033643 68 200 0.0 1.0 0.00 0.61 0.61 99 1016.6
20260906033138 68 157 0.0 1.0 0.00 0.61 0.61 99 1016.6
20260906032635 68 128 0.0 1.0 0.00 0.61 0.61 99 1016.5
20260906032134 68 98 0.0 0.0 0.00 0.61 0.61 99 1016.7
20260906031630 68 106 1.0 1.0 0.00 0.61 0.61 99 1016.3
20260906031125 68 172 0.0 1.0 0.00 0.61 0.61 99 1016.3
20260906030624 68 143 1.0 1.0 0.00 0.61 0.61 99 1016.7
20260906030120 68 119 0.0 1.0 0.00 0.61 0.61 99 1016.7
20260906025619 68 148 0.0 1.0 0.00 0.61 0.61 99 1016.8
20260906025118 68 172 1.0 2.0 0.00 0.61 0.61 99 1016.8
20260906024613 68 114 0.0 0.0 0.00 0.61 0.61 99 1017.0
20260906024107 68 171 0.0 0.0 0.00 0.61 0.61 99 1016.8
20260906023603 68 84 0.0 0.0 0.00 0.61 0.61 99 1016.7
20260906023058 68 139 0.0 0.0 0.00 0.61 0.61 99 1016.6
20260906022553 69 160 0.0 0.0 0.00 0.61 0.61 99 1016.4
20260906022048 69 140 0.0 0.0 0.00 0.61 0.61 99 1016.6
20260906021544 69 172 1.0 1.0 0.00 0.61 0.61 99 1016.3
20260906021043 69 104 1.0 1.0 0.00 0.61 0.61 99 1016.3
20260906020543 69 139 0.0 0.0 0.00 0.61 0.61 99 1016.2
20260906020042 69 139 0.0 0.0 0.00 0.61 0.61 99 1015.9
20260906015542 69 132 0.0 0.0 0.00 0.61 0.61 99 1016.3
20260906015041 69 154 0.0 0.0 0.00 0.61 0.61 99 1015.8
20260906014536 69 133 0.0 0.0 0.00 0.61 0.61 99 1015.9
20260906014032 69 177 2.0 2.0 0.00 0.61 0.61 99 1015.9
20260906013527 70 152 0.0 0.0 0.00 0.61 0.61 99 1016.3
20260906013023 70 145 1.0 1.0 0.00 0.61 0.61 99 1015.9
20260906012518 70 99 0.0 0.0 0.00 0.61 0.61 99 1016.0
20260906012017 70 309 1.0 1.0 0.00 0.61 0.61 99 1016.3
20260906011514 70 184 2.0 2.0 0.00 0.61 0.61 99 1015.8
20260906011013 70 172 0.0 0.0 0.00 0.61 0.61 99 1015.7
20260906010508 70 137 0.0 1.0 0.00 0.61 0.61 99 1015.4
20260906010005 70 134 0.0 1.0 0.00 0.61 0.61 99 1015.4
20260906005504 70 118 0.0 0.0 0.00 0.61 0.61 99 1015.5
20260906005002 70 80 0.0 0.0 0.00 0.61 0.61 99 1015.8
20260906004457 70 149 0.0 0.0 0.00 0.61 0.61 99 1015.7
20260906003952 71 176 1.0 2.0 0.00 0.61 0.61 99 1015.6
20260906003448 71 183 2.0 2.0 0.00 0.61 0.61 99 1015.3
20260906002943 71 151 2.0 2.0 0.00 0.61 0.61 99 1015.4
20260906002443 71 172 1.0 2.0 0.00 0.61 0.61 99 1015.6
20260906001938 71 188 1.0 2.0 0.00 0.61 0.61 99 1015.3
20260906001434 71 155 1.0 2.0 0.00 0.61 0.61 99 1015.7
20260906000929 71 142 0.0 0.0 0.00 0.61 0.61 99 1015.3
20260906000425 71 116 0.0 0.0 0.00 0.61 0.61 99 1015.6
20260905235919 72 180 2.0 2.0 0.00 0.61 0.61 99 1015.6
20260905235413 72 138 0.0 0.0 0.00 0.61 0.61 99 1015.6
20260905234908 72 161 1.0 2.0 0.00 0.61 0.61 99 1015.5
20260905234403 73 152 0.0 0.0 0.00 0.61 0.61 99 1015.3
20260905233858 73 143 1.0 2.0 0.00 0.61 0.61 99 1015.5
20260905233353 74 179 1.0 2.0 0.00 0.61 0.61 99 1015.6
20260905232852 74 126 1.0 1.0 0.00 0.61 0.61 99 1015.7
20260905232349 74 128 0.0 0.0 0.00 0.61 0.61 99 1015.6
20260905231844 74 132 0.0 0.0 0.00 0.61 0.61 99 1015.4
20260905231339 74 124 0.0 0.0 0.00 0.61 0.61 99 1015.4
20260905230836 73 131 0.0 0.0 0.00 0.61 0.61 99 1015.3
20260905230333 73 122 0.0 0.0 0.00 0.61 0.61 99 1015.4
20260905225832 73 94 0.0 0.0 0.00 0.61 0.61 99 1015.4
20260905225327 73 162 1.0 1.0 0.00 0.61 0.61 99 1015.3
20260905224822 72 142 0.0 0.0 0.00 0.61 0.61 99 1015.4
20260905224317 72 237 1.0 1.0 0.00 0.61 0.61 99 1015.1
20260905223812 72 160 1.0 1.0 0.00 0.61 0.61 99 1015.3
20260905223310 72 157 0.0 0.0 0.00 0.61 0.61 99 1015.0
20260905222805 72 166 2.0 2.0 0.00 0.61 0.61 99 1015.2
20260905222306 72 159 1.0 1.0 0.00 0.61 0.61 99 1015.2
20260905221800 72 150 0.0 0.0 0.00 0.61 0.61 99 1015.3
20260905221256 72 155 0.0 0.0 0.00 0.61 0.61 99 1015.4
20260905220752 71 138 2.0 2.0 0.00 0.61 0.61 99 1015.2
20260905220248 71 127 1.0 2.0 0.00 0.61 0.61 99 1015.5
20260905215747 71 178 3.0 3.0 0.00 0.61 0.61 99 1015.5
20260905215243 71 124 0.0 1.0 0.00 0.61 0.61 99 1015.6
20260905214739 71 172 0.0 1.0 0.00 0.61 0.61 99 1015.5
20260905214234 71 164 2.0 3.0 0.00 0.61 0.61 99 1015.4
20260905213729 71 160 2.0 2.0 0.00 0.61 0.61 99 1015.6
20260905213226 71 166 2.0 2.0 0.00 0.61 0.61 99 1015.6
20260905212721 71 176 3.0 3.0 0.00 0.61 0.61 99 1015.7
20260905212220 71 158 1.0 2.0 0.00 0.61 0.61 99 1015.9
20260905211719 72 152 2.0 3.0 0.00 0.61 0.61 99 1015.8
20260905211215 72 181 0.0 0.0 0.00 0.61 0.61 99 1015.7
20260905210711 72 130 0.0 0.0 0.00 0.61 0.61 99 1015.9
20260905210206 72 119 0.0 0.0 0.00 0.61 0.61 99 1016.3
20260905205705 72 152 0.0 0.0 0.00 0.61 0.61 99 1015.9
20260905205204 72 152 0.0 1.0 0.00 0.61 0.61 99 1015.9
20260905204659 72 123 0.0 0.0 0.00 0.61 0.61 99 1016.0
20260905204154 71 121 0.0 0.0 0.00 0.61 0.61 99 1016.4
20260905203649 71 139 1.0 1.0 0.00 0.61 0.61 99 1016.2
20260905203144 71 152 0.0 0.0 0.00 0.61 0.61 99 1015.9
20260905202639 71 162 1.0 1.0 0.00 0.61 0.61 99 1016.0
20260905202129 72 153 2.0 2.0 0.00 0.61 0.61 99 1016.4
20260905201624 72 153 0.0 1.0 0.00 0.61 0.61 99 1016.2
20260905201124 71 274 1.0 1.0 0.00 0.61 0.61 99 1016.0
20260905200620 71 321 2.0 2.0 0.71 0.61 0.61 99 1015.9
20260905200114 72 112 0.0 1.0 0.78 0.61 0.61 99 1015.7
20260905195607 73 179 4.0 5.0 0.12 0.50 0.50 99 1016.2
20260905195103 74 123 2.0 2.0 0.00 0.48 0.48 99 1016.2
20260905194603 73 21 2.0 3.0 0.00 0.48 0.48 99 1016.2
20260905194102 73 194 3.0 3.0 0.00 0.48 0.48 99 1016.0
20260905193557 73 187 3.0 5.0 0.00 0.48 0.48 99 1016.2
20260905193052 74 107 1.0 2.0 0.00 0.48 0.48 99 1016.4
20260905192547 75 137 3.0 5.0 0.00 0.48 0.48 99 1016.6
20260905192044 75 127 5.0 6.0 0.00 0.48 0.48 99 1016.3
20260905191542 74 199 2.0 5.0 0.00 0.48 0.48 99 1016.4
20260905191036 73 181 3.0 5.0 0.00 0.48 0.48 99 1016.5
20260905190533 73 183 2.0 3.0 0.00 0.48 0.48 99 1016.3
20260905190028 74 125 0.0 1.0 0.59 0.48 0.48 99 1016.4
20260905185527 73 88 2.0 2.0 0.90 0.48 0.48 95 1016.6
20260905185026 75 182 2.0 2.0 0.52 0.41 0.41 99 1016.5
20260905184521 75 178 2.0 2.0 0.05 0.33 0.33 99 1016.3
20260905184020 75 156 0.0 1.0 0.07 0.32 0.32 99 1016.2
20260905183519 74 109 0.0 0.0 0.38 0.32 0.32 99 1015.8
20260905183015 74 131 1.0 1.0 1.63 0.31 0.31 99 1016.3
20260905182509 76 106 0.0 0.0 1.68 0.28 0.28 98 1015.9
20260905182004 82 178 1.0 2.0 0.42 0.07 0.07 89 1015.9
20260905181459 87 157 1.0 1.0 0.00 0.00 0.00 76 1015.7
20260905180957 91 94 3.0 5.0 0.00 0.00 0.00 67 1015.6
20260905180452 91 58 1.0 1.0 0.00 0.00 0.00 64 1015.5
20260905175948 90 310 2.0 2.0 0.00 0.00 0.00 68 1015.8
20260905175447 88 78 1.0 2.0 0.00 0.00 0.00 69 1016.2
20260905174943 89 27 3.0 5.0 0.00 0.00 0.00 66 1016.3
20260905174438 89 278 2.0 2.0 0.00 0.00 0.00 66 1016.6
20260905173933 89 48 3.0 3.0 0.00 0.00 0.00 69 1016.6
20260905173430 89 44 1.0 2.0 0.00 0.00 0.00 71 1016.6
20260905172925 88 239 2.0 3.0 0.00 0.00 0.00 67 1016.6
20260905172423 87 240 1.0 1.0 0.00 0.00 0.00 68 1016.6
20260905171919 87 274 5.0 5.0 0.00 0.00 0.00 69 1016.6
20260905171415 87 69 1.0 1.0 0.00 0.00 0.00 71 1016.6
20260905170911 87 165 1.0 1.0 0.00 0.00 0.00 70 1016.6
20260905170407 87 164 2.0 2.0 0.00 0.00 0.00 69 1016.9
20260905165906 86 271 3.0 3.0 0.00 0.00 0.00 72 1016.7
20260905165402 86 156 0.0 0.0 0.00 0.00 0.00 75 1016.8
20260905164856 85 281 0.0 1.0 0.00 0.00 0.00 76 1016.9
20260905164351 86 269 3.0 3.0 0.00 0.00 0.00 75 1017.1
20260905163846 85 277 1.0 2.0 0.00 0.00 0.00 77 1017.3
20260905163343 85 3 1.0 1.0 0.00 0.00 0.00 81 1017.5
20260905162839 83 246 0.0 0.0 0.00 0.00 0.00 83 1017.8
20260905162338 83 267 2.0 2.0 0.00 0.00 0.00 80 1017.4
20260905161833 83 287 1.0 1.0 0.00 0.00 0.00 80 1017.5
20260905161332 82 19 2.0 2.0 0.00 0.00 0.00 86 1017.4
20260905160830 82 339 3.0 3.0 0.00 0.00 0.00 81 1017.4
20260905160325 81 23 1.0 1.0 0.00 0.00 0.00 85 1017.2
20260905155820 80 279 1.0 1.0 0.00 0.00 0.00 83 1017.3
20260905155319 80 280 2.0 2.0 0.00 0.00 0.00 84 1017.4
20260905154813 79 230 1.0 1.0 0.00 0.00 0.00 86 1017.6
20260905154309 79 291 0.0 0.0 0.00 0.00 0.00 90 1017.5
20260905153804 78 63 0.0 0.0 0.00 0.00 0.00 90 1017.4
20260905153300 77 58 2.0 2.0 0.00 0.00 0.00 93 1017.4
20260905152754 77 52 1.0 1.0 0.00 0.00 0.00 93 1017.8
20260905152254 76 83 0.0 0.0 0.00 0.00 0.00 95 1017.5
20260905151754 75 160 0.0 0.0 0.00 0.00 0.00 95 1017.8
20260905151249 75 134 0.0 0.0 0.00 0.00 0.00 96 1017.9
20260905150744 75 305 1.0 1.0 0.00 0.00 0.00 97 1018.2
20260905150244 74 276 1.0 2.0 0.00 0.00 0.00 98 1018.2
20260905145741 74 145 0.0 0.0 0.00 0.00 0.00 98 1018.2
20260905145236 73 275 2.0 3.0 0.00 0.00 0.00 99 1018.4
20260905144735 73 228 0.0 0.0 0.00 0.00 0.00 99 1018.1
20260905144230 72 277 3.0 3.0 0.00 0.00 0.00 99 1018.1
20260905143730 71 80 1.0 1.0 0.00 0.00 0.00 99 1018.2
20260905143229 71 45 1.0 1.0 0.00 0.00 0.00 99 1018.2
20260905142727 70 89 1.0 1.0 0.00 0.00 0.00 99 1018.3
20260905142222 71 325 1.0 1.0 0.00 0.00 0.00 99 1018.2
20260905141718 70 77 0.0 0.0 0.00 0.00 0.00 99 1018.3
20260905141214 70 64 0.0 0.0 0.00 0.00 0.00 99 1018.4
20260905140709 71 280 0.0 0.0 0.00 0.00 0.00 99 1018.5
20260905140203 69 319 1.0 2.0 0.00 0.00 0.00 99 1018.6
20260905135657 69 295 1.0 1.0 0.00 0.00 0.00 99 1018.7
20260905135153 69 52 1.0 1.0 0.00 0.00 0.00 99 1018.5
20260905134647 69 139 0.0 0.0 0.00 0.00 0.00 99 1018.6
20260905134146 69 236 0.0 0.0 0.00 0.00 0.00 99 1018.9
20260905133641 69 275 0.0 1.0 0.00 0.00 0.00 99 1018.6
20260905133136 69 172 0.0 0.0 0.00 0.00 0.00 99 1018.7
20260905132635 69 86 0.0 0.0 0.00 0.00 0.00 99 1019.0
20260905132131 69 86 0.0 0.0 0.00 0.00 0.00 99 1018.7
20260905131626 68 87 0.0 0.0 0.00 0.00 0.00 99 1018.7
20260905131121 68 134 0.0 0.0 0.00 0.00 0.00 99 1018.9
20260905130615 68 87 0.0 0.0 0.00 0.00 0.00 99 1018.9
20260905130115 69 87 0.0 0.0 0.00 0.00 0.00 99 1019.0
20260905125609 68 108 0.0 0.0 0.00 0.00 0.00 99 1018.7
20260905125105 68 99 0.0 0.0 0.00 0.00 0.00 99 1018.6
20260905124601 68 92 0.0 0.0 0.00 0.00 0.00 99 1018.5
20260905124057 68 126 0.0 0.0 0.00 0.00 0.00 99 1018.7
20260905123551 68 126 0.0 0.0 0.00 0.00 0.00 99 1018.7
20260905123048 68 126 0.0 0.0 0.00 0.00 0.00 99 1018.5
20260905122543 68 124 0.0 0.0 0.00 0.00 0.00 99 1018.8
20260905122038 67 125 0.0 0.0 0.00 0.00 0.00 99 1018.7
20260905121538 67 125 0.0 0.0 0.00 0.00 0.00 99 1018.5
20260905121033 67 125 0.0 0.0 0.00 0.00 0.00 99 1018.7
20260905120527 67 118 0.0 0.0 0.00 0.00 0.00 99 1018.4
20260905120022 66 107 0.0 0.0 0.00 0.00 0.00 99 1018.4
20260905115521 67 114 0.0 0.0 0.00 0.00 0.00 99 1018.2
20260905115016 66 114 0.0 0.0 0.00 0.00 0.00 99 1018.2
20260905114515 66 135 0.0 0.0 0.00 0.00 0.00 99 1018.3
20260905114014 67 136 0.0 0.0 0.00 0.00 0.00 99 1017.8
20260905113510 67 144 0.0 0.0 0.00 0.00 0.00 99 1018.3
20260905113005 67 144 0.0 0.0 0.00 0.00 0.00 99 1018.1
20260905112500 66 144 0.0 0.0 0.00 0.00 0.00 99 1017.9
20260905111955 66 145 0.0 0.0 0.00 0.00 0.00 99 1018.1
20260905111449 66 144 0.0 0.0 0.00 0.00 0.00 99 1018.0
20260905110943 66 136 0.0 0.0 0.00 0.00 0.00 99 1017.6
20260905110442 66 137 0.0 0.0 0.00 0.00 0.00 99 1017.6
20260905105937 66 125 0.0 0.0 0.00 0.00 0.00 99 1017.8
20260905105432 66 124 0.0 0.0 0.00 0.00 0.00 99 1017.5
20260905104931 66 130 0.0 0.0 0.00 0.00 0.00 99 1017.6
20260905104427 66 130 0.0 0.0 0.00 0.00 0.00 99 1017.6
20260905103922 67 139 0.0 0.0 0.00 0.00 0.00 99 1017.5
20260905103418 67 139 0.0 0.0 0.00 0.00 0.00 99 1017.4
20260905102913 67 135 0.0 0.0 0.00 0.00 0.00 99 1017.3
20260905102409 67 135 0.0 0.0 0.00 0.00 0.00 99 1017.3
20260905101903 67 135 0.0 0.0 0.00 0.00 0.00 99 1017.4